Terug naar catalogus

STARLINK-3329

ActiefCommunicatieVLEO
NORAD 50827·PAYLOAD·🇺🇸 United States

Gelanceerd Jan 6, 2022 vanaf Cape Canaveral Space Force Station

Loading…

Volgende Passages (komende 24 uur)

TLE

VersSource: CelesTrak SupGP

Epoch: Sep 14, 2026, 21:52 UTC

1 50827C 22001AA  26257.91159722  .00005823  00000+0  17209-3 0  2571
2 50827  53.1603  27.4980 0001181  78.8627 297.7689 15.34376700    16

Volg STARLINK-3329 in realtime met AllMySat

Download on the App Store